[[{"header":{"parameterUnit":"m.s-1","parameterCategory":1,"la1":30.2991,"la2":30.254,"lo1":-89.0895,"lo2":-89.0444,"dy":0.0017,"dx":0.0017,"nx":28,"ny":28,"refTime":"2024-04-08T09:00:00:Z","depth":0,"parameterNumber":2,"parameterNumberName":"U-component_of_WINDS"},"data":[0,0,0,0,0,0,0,0,0,0,0,0,0,0,0,0,0,0,0,0,0,0,0,0,0,0,0,0,0,0,0,0,0,0,0,0,0,0,0,0,0,0,0,0,0,0,0,0,0,0,0,0,0,0,0,0,0,0,-4.613,-4.6132,0,-4.6287,-4.6289,-4.6291,-4.6332,-4.6331,-4.633,-4.6329,-4.6489,-4.6494,-4.6499,0,0,0,0,0,0,0,0,0,0,0,0,0,-4.5866,-4.5871,-4.613,-4.6132,-4.6134,-4.6287,-4.6289,-4.6291,-4.6332,-4.6331,-4.633,-4.6329,-4.6487,-4.6493,-4.6499,0,0,0,0,0,0,0,0,0,0,0,0,0,-4.5997,-4.5872,-4.613,-4.6173,-4.6178,-4.6287,-4.6289,-4.6292,-4.6332,-4.6331,-4.6329,-4.6328,-4.6485,-4.6493,-4.65,-4.6576,0,0,-4.6524,-4.6527,0,0,0,0,0,0,0,0,-4.599,-4.6007,-4.6165,-4.617,-4.6176,-4.6289,-4.6255,-4.6387,-4.6333,-4.6274,-4.6329,-4.6327,-4.6423,-4.6436,-4.6469,-4.6584,-4.6591,-4.6525,-4.6529,-4.6533,-4.6535,0,0,0,0,0,0,0,-4.5981,-4.6001,-4.6192,-4.6167,-4.6174,-4.6185,-4.6202,-4.628,-4.6355,-4.6279,-4.6282,-4.63,-4.6426,-4.6461,-4.6473,-4.6593,-4.6524,-4.6531,-4.6536,-4.6539,-4.6779,-4.6781,0,0,0,0,0,0,-4.5964,-4.5993,-4.6187,-4.6197,-4.6078,-4.619,-4.621,-4.6254,-4.6354,-4.6368,-4.6301,-4.6302,-4.6449,-4.6464,-4.6478,-4.6574,-4.6532,-4.654,-4.6544,-4.6778,-4.678,-4.6782,0,0,0,0,0,0,-4.5958,-4.5981,-4.6181,-4.6096,-4.6122,-4.6197,-4.6246,-4.6258,-4.6293,-4.6371,-4.6384,-4.6323,-4.6448,-4.6468,-4.6552,-4.658,-4.6543,-4.655,-4.6776,-4.6778,-4.6781,-4.6765,0,0,0,0,0,0,-4.5951,-4.5979,-4.6008,-4.6096,-4.6127,-4.6252,-4.6248,-4.6262,-4.6306,-4.6308,-4.6395,-4.6408,-4.6448,-4.654,-4.656,-4.659,-4.6556,-4.6773,-4.6777,-4.678,-4.6763,-4.6767,-4.677,0,0,0,0,0,-4.5941,-4.5997,-4.601,-4.6033,-4.6165,-4.6253,-4.6271,-4.6316,-4.6308,-4.6338,-4.6389,-4.6405,-4.6574,-4.6549,-4.6571,-4.6604,-4.6772,-4.6776,-4.678,-4.6762,-4.6766,-4.677,0,0,0,0,0,0,-4.591,-4.601,-4.6024,-4.6111,-4.6173,-4.626,-4.6299,-4.6319,-4.6385,-4.6384,-4.6438,-4.6457,-4.6538,-4.658,-4.6549,-4.6683,-4.6673,-4.6682,-4.6652,-4.6657,-4.666,-4.6647,-4.6563,0,0,0,0,0,-4.5914,-4.5977,-4.6061,-4.6129,-4.616,-4.6224,-4.6264,-4.6294,-4.6361,-4.6388,-4.6444,-4.6508,-4.6576,-4.6619,-4.6686,-4.6771,-4.679,-4.6805,-4.6808,-4.681,-4.6816,-4.6864,-4.6871,-4.6795,-4.6795,-4.6795,0,0,-4.5921,-4.5983,-4.602,-4.6124,-4.6176,-4.6241,-4.6246,-4.6314,-4.6362,-4.6398,-4.648,-4.6525,-4.66,-4.6685,-4.6725,-4.6722,-4.6842,-4.6815,-4.6816,-4.6821,-4.6869,-4.6876,-4.6882,-4.6798,-4.6797,-4.6797,0,0,-4.5967,-4.6021,-4.6083,-4.6136,-4.6214,-4.6257,-4.6272,-4.6357,-4.6387,-4.6472,-4.65,-4.6559,-4.6674,-4.6726,-4.6768,-4.6836,-4.6853,-4.6856,-4.6872,-4.6918,-4.6924,-4.6929,-4.6952,-4.696,-4.6862,-4.6862,-4.6862,0,-4.5965,-4.6063,-4.6113,-4.6179,-4.6224,-4.6261,-4.6325,-4.6373,-4.647,-4.65,-4.6496,-4.6642,-4.6695,-4.6793,-4.6809,-4.6842,-4.6861,-4.6845,-4.6919,-4.6925,-4.6931,-4.6954,-4.6962,-4.6862,-4.6862,-4.6862,-4.6862,0,-4.6058,-4.6125,-4.6167,-4.6259,-4.6309,-4.6374,-4.6433,-4.6478,-4.6505,-4.6548,-4.6634,-4.6699,-4.678,-4.6806,-4.6832,-4.6907,-4.6903,-4.6909,-4.6899,-4.6937,-4.6959,-4.6968,-4.6862,-4.6862,-4.6862,-4.6862,0,0,-4.6086,-4.6206,-4.622,-4.6263,-4.6353,-4.6407,-4.6474,-4.6553,-4.659,-4.6656,-4.6713,-4.6811,-4.6817,-4.6864,-4.6897,-4.6938,-4.6986,-4.6939,-4.6941,-4.6944,-4.7073,-4.7066,-4.7075,-4.6999,-4.7001,-4.7003,-4.7066,0,-4.6142,-4.6262,-4.6309,-4.6407,-4.647,-4.6507,-4.6565,-4.6627,-4.667,-4.673,-4.6778,-4.6846,-4.6849,-4.6878,-4.692,-4.6971,-4.7012,-4.6968,-4.7052,-4.7054,-4.703,-4.7087,-4.7081,-4.7137,-4.7075,-4.7076,-4.7077,0,-4.6222,-4.6289,-4.6393,-4.6477,-4.6505,-4.6556,-4.6633,-4.669,-4.6761,-4.679,-4.6844,-4.6874,-4.6946,-4.6934,-4.7034,-4.7002,-4.704,-4.7071,-4.7074,-4.7082,-4.7066,-4.7095,-4.7156,-4.7163,-4.7092,-4.7091,-4.709,0,-4.623,-4.6347,-4.6424,-4.646,-4.6559,-4.6595,-4.6638,-4.6708,-4.6753,-4.682,-4.685,-4.6925,-4.6965,-4.7023,-4.7073,-4.706,-4.7167,-4.716,-4.7192,-4.7191,-4.7211,-4.7209,-4.7277,-4.7239,-4.7239,-4.7238,-4.7238,0,-4.6287,-4.6348,-4.6429,-4.6476,-4.6547,-4.6602,-4.667,-4.6716,-4.6778,-4.6835,-4.6873,-4.6925,-4.6989,-4.7051,-4.7091,-4.7166,-4.7185,-4.7209,-4.7219,-4.7205,-4.7202,-4.7229,-4.7225,-4.7241,-4.724,-4.724,-4.7239,0,-4.6307,-4.6363,-4.645,-4.6538,-4.6561,-4.6609,-4.6684,-4.6732,-4.6778,-4.6849,-4.6869,-4.694,-4.7014,-4.7071,-4.7167,-4.7194,-4.7274,-4.7285,-4.7249,-4.7254,-4.7282,-4.7278,-4.7369,-4.7383,-4.7336,-4.7337,-4.7337,0,-4.6337,-4.6386,-4.6479,-4.652,-4.6563,-4.6628,-4.6675,-4.6731,-4.6777,-4.6863,-4.69,-4.6977,-4.7041,-4.7157,-4.7218,-4.7292,-4.7304,-4.7331,-4.7315,-4.7299,-4.7302,-4.7298,-4.7303,-4.7331,-4.7332,-4.7332,-4.7332,0,-4.6386,-4.6412,-4.6477,-4.6552,-4.6606,-4.6668,-4.6731,-4.6762,-4.683,-4.6881,-4.6957,-4.7006,-4.7105,-4.7181,-4.7261,-4.7306,-4.733,-4.7337,-4.7348,-4.7333,-4.731,-4.7322,-4.7253,-4.7334,-4.7334,-4.7334,-4.7334,-4.7334,-4.6412,-4.6456,-4.6529,-4.66,-4.6654,-4.6712,-4.676,-4.6813,-4.6877,-4.6961,-4.6991,-4.7069,-4.7141,-4.7251,-4.7297,-4.7359,-4.736,-4.7376,-4.738,-4.7383,-4.7381,-4.7302,-4.7374,-4.7374,-4.7374,-4.7374,-4.7374,0,-4.6461,-4.651,-4.6575,-4.6662,-4.6718,-4.6737,-4.6808,-4.6854,-4.6922,-4.6987,-4.7049,-4.7137,-4.7211,-4.7278,-4.7355,-4.7392,-4.7405,-4.741,-4.7407,-4.7416,-4.7376,-4.7358,-4.7398,-4.7398,-4.7398,-4.7398,-4.7398,-4.7398,-4.6493,-4.6569,-4.6604,-4.6708,-4.6757,-4.6834,-4.6872,-4.6926,-4.6978,-4.7074,-4.7136,-4.7179,-4.7245,-4.7327,-4.7396,-4.7414,-4.744,-4.7441,-4.7462,-4.7422,-4.7419,-4.7416,-4.7399,-4.7447,-4.7447,-4.7497,-4.7497,-4.7497]},{"header":{"parameterUnit":"m.s-1","parameterCategory":1,"la1":30.2991,"la2":30.254,"lo1":-89.0895,"lo2":-89.0444,"dy":0.0017,"dx":0.0017,"nx":28,"ny":28,"refTime":"2024-04-08T09:00:00:Z","depth":0,"parameterNumber":3,"parameterNumberName":"V-component_of_WINDS"},"data":[0,0,0,0,0,0,0,0,0,0,0,0,0,0,0,0,0,0,0,0,0,0,0,0,0,0,0,0,0,0,0,0,0,0,0,0,0,0,0,0,0,0,0,0,0,0,0,0,0,0,0,0,0,0,0,0,0,0,5.111,5.1111,0,5.1218,5.1219,5.122,5.1214,5.1212,5.1211,5.1209,5.1319,5.1324,5.1328,0,0,0,0,0,0,0,0,0,0,0,0,0,5.09,5.0904,5.111,5.1111,5.1113,5.1217,5.1219,5.122,5.1214,5.1212,5.1211,5.1209,5.1318,5.1323,5.1328,0,0,0,0,0,0,0,0,0,0,0,0,0,5.0998,5.0905,5.111,5.1122,5.1124,5.1217,5.1219,5.1221,5.1215,5.1212,5.121,5.1208,5.1316,5.1323,5.1329,5.1416,0,0,5.1349,5.1352,0,0,0,0,0,0,0,0,5.0992,5.1006,5.1119,5.1122,5.1124,5.12,5.1185,5.1286,5.1215,5.118,5.1209,5.1207,5.1282,5.1291,5.1316,5.1421,5.1426,5.135,5.1354,5.1356,5.1358,0,0,0,0,0,0,0,5.0986,5.1001,5.1153,5.1121,5.1124,5.1123,5.1134,5.1204,5.1243,5.1183,5.1183,5.1196,5.1282,5.131,5.1319,5.1428,5.1349,5.1355,5.1359,5.1362,5.1613,5.1615,0,0,0,0,0,0,5.0976,5.0995,5.1149,5.1156,5.1051,5.1129,5.1141,5.1178,5.1242,5.1249,5.1198,5.1195,5.13,5.1311,5.1322,5.1431,5.1356,5.1363,5.1366,5.161,5.1613,5.1616,0,0,0,0,0,0,5.0971,5.099,5.1145,5.1076,5.1095,5.1135,5.1176,5.1181,5.1209,5.1253,5.126,5.1219,5.1298,5.1313,5.1394,5.1435,5.1366,5.1371,5.1607,5.1611,5.1615,5.1647,0,0,0,0,0,0,5.0965,5.0988,5.1021,5.1076,5.1099,5.1214,5.1179,5.1185,5.122,5.1218,5.1274,5.1281,5.1298,5.1384,5.14,5.1442,5.1377,5.1603,5.1609,5.1614,5.1643,5.1652,5.166,0,0,0,0,0,5.0958,5.1026,5.1023,5.1042,5.1141,5.1216,5.1229,5.1247,5.1223,5.1258,5.1286,5.128,5.1427,5.1392,5.141,5.1455,5.1601,5.1607,5.1613,5.1639,5.165,5.166,0,0,0,0,0,0,5.0974,5.1033,5.1031,5.1118,5.1162,5.1215,5.1259,5.1258,5.1309,5.1305,5.1324,5.1337,5.1418,5.1444,5.1404,5.1544,5.1511,5.1521,5.1525,5.1536,5.1544,5.1537,5.1382,0,0,0,0,0,5.0987,5.1043,5.1092,5.1164,5.1187,5.1219,5.1252,5.1262,5.1308,5.1327,5.1361,5.1407,5.1464,5.1501,5.1555,5.1646,5.166,5.1686,5.1695,5.1701,5.1711,5.1763,5.1776,5.1637,5.1636,5.1636,0,0,5.1016,5.1056,5.1089,5.1169,5.1204,5.1262,5.1235,5.1297,5.1341,5.1336,5.1415,5.1442,5.1494,5.1581,5.1621,5.1605,5.1752,5.1709,5.1714,5.172,5.1771,5.1784,5.1796,5.1641,5.164,5.1639,0,0,5.1099,5.1133,5.1199,5.1235,5.1289,5.1311,5.1326,5.138,5.1398,5.1477,5.1476,5.1528,5.1625,5.1663,5.1695,5.1794,5.1791,5.1811,5.1857,5.1908,5.1919,5.1929,5.1966,5.1979,5.182,5.182,5.182,0,5.1128,5.1216,5.1232,5.1296,5.1332,5.1331,5.1398,5.1432,5.1502,5.1527,5.1508,5.1632,5.1666,5.1763,5.1788,5.1813,5.1832,5.1806,5.1916,5.1926,5.1935,5.1971,5.1985,5.1822,5.1822,5.1822,5.1821,0,5.125,5.1311,5.1357,5.1425,5.1466,5.153,5.1558,5.1597,5.1603,5.1627,5.1709,5.1751,5.1815,5.1838,5.1844,5.1937,5.1926,5.1911,5.1879,5.1951,5.1985,5.1999,5.1825,5.1825,5.1824,5.1823,0,0,5.1346,5.1424,5.144,5.1472,5.1533,5.158,5.1646,5.1709,5.1743,5.1791,5.1848,5.193,5.1918,5.1954,5.1965,5.2009,5.2088,5.199,5.1991,5.2008,5.2195,5.2207,5.2223,5.2086,5.2088,5.209,5.2192,0,5.1437,5.1553,5.1571,5.1674,5.1732,5.1732,5.1789,5.1833,5.1857,5.191,5.1936,5.1995,5.1973,5.1995,5.2039,5.2069,5.2126,5.2062,5.214,5.2142,5.2129,5.2241,5.2253,5.2347,5.2205,5.2207,5.2209,0,5.1559,5.1611,5.172,5.1775,5.1799,5.185,5.1911,5.1961,5.2011,5.2025,5.2067,5.2072,5.2141,5.2105,5.2201,5.2157,5.219,5.2209,5.2213,5.2223,5.2181,5.2255,5.2377,5.2392,5.223,5.2228,5.2226,0,5.1621,5.1719,5.1797,5.1824,5.1889,5.1925,5.1954,5.2001,5.2039,5.2092,5.2117,5.2176,5.221,5.2256,5.2278,5.2249,5.2374,5.2338,5.2389,5.2389,5.2417,5.2415,5.2548,5.2435,5.2434,5.2434,5.2434,0,5.1722,5.1789,5.1826,5.1875,5.195,5.197,5.2045,5.2072,5.2115,5.217,5.2173,5.2224,5.2249,5.2304,5.2322,5.24,5.2415,5.2429,5.2434,5.243,5.2429,5.2454,5.2449,5.2438,5.2437,5.2436,5.2436,0,5.1805,5.1832,5.1919,5.1973,5.1989,5.2042,5.2089,5.2137,5.216,5.223,5.2247,5.2284,5.235,5.2376,5.2455,5.2467,5.2559,5.2556,5.2542,5.2544,5.2594,5.259,5.2749,5.2772,5.2641,5.2642,5.2643,0,5.1869,5.1921,5.1982,5.2019,5.2049,5.2108,5.2147,5.2168,5.2209,5.2271,5.2311,5.2376,5.243,5.2535,5.2569,5.2631,5.2632,5.2683,5.2641,5.2637,5.2636,5.2633,5.264,5.2692,5.2693,5.2694,5.2695,0,5.1981,5.1992,5.2047,5.2109,5.2155,5.2204,5.2252,5.2282,5.2311,5.2356,5.2424,5.2465,5.2547,5.2613,5.2677,5.2707,5.2707,5.2708,5.2723,5.2722,5.2712,5.2721,5.2566,5.2704,5.2703,5.2703,5.2702,5.2702,5.2058,5.2105,5.2156,5.2218,5.2257,5.2302,5.235,5.238,5.2436,5.2505,5.2514,5.2587,5.2637,5.2723,5.2756,5.2813,5.28,5.2822,5.2828,5.2834,5.2838,5.2701,5.2825,5.2824,5.2824,5.2824,5.2824,0,5.2172,5.2204,5.2262,5.2329,5.2379,5.2374,5.2427,5.2469,5.2533,5.258,5.2633,5.2711,5.2775,5.2815,5.288,5.2918,5.292,5.2935,5.2933,5.2941,5.2845,5.2826,5.2932,5.2932,5.2932,5.2932,5.2932,5.2932,5.2237,5.2317,5.2335,5.2434,5.2467,5.2538,5.2569,5.2612,5.2649,5.2737,5.279,5.2816,5.286,5.2928,5.2987,5.2998,5.3022,5.3039,5.3048,5.2958,5.2947,5.2936,5.2919,5.3043,5.3043,5.3139,5.314,5.3141]}]]